Location: *
(50.9167°S, 179.4000°W)
Time: 21:18:06
(UTC+00:00)

Cosmos 44 - Pass Details

Date: 03 March 2024
Orbit: 574 x 782 km, 65.1° (Epoch: 16 April)

Event Time Altitude Azimuth Distance (km) Brightness Sun altitude
Rises 16:36:38 0° 220° (SW) 2,882 6.3 -9.2°
Reaches altitude 10° 16:38:52 10° 218° (SW) 1,996 5.5 -8.9°
Maximum altitude 16:43:22 69° 133° (SE) 691 3.5 -8.2°
Drops below altitude 10° 16:48:06 10° 49° (NE) 2,096 6.2 -7.5°
Sets 16:50:29 0° 46° (NE) 3,039 7.0 -7.1°
